This demonstration page uses our WeatherBlox Daily Observations layout. Learn more.

Left ArrowRight Arrow

40.92945, -100.16068

Hourly Observations for December 17, 2020

Temp ( °F °C ) Dew Point ( °F °C ) Humidity (%) Winds ( mph kmh ) Pressure ( in mb ) Visibility ( mi km ) Precip ( " mm )
12:15 am 00:15 Clear 25 -4 20 -6.4 84 84 WNW 8 13 30.17 1022 10 16.0934 0 0
12:35 am 00:35 Clear 23 -5.1 19 -7.1 86 86 NW 9 15 30.19 1022 10 16.0934 0 0
12:55 am 00:55 Clear 20 -6.9 17 -8.4 89 89 NW 7 11 30.2 1023 10 16.0934 0 0
1:15 am 01:15 Clear 24 -4.6 19 -7 84 84 NW 10 17 30.17 1022 10 16.0934 0 0
1:35 am 01:35 Clear 22 -5.3 18 -7.6 84 84 WNW 7 11 30.18 1022 10 16.0934 0 0
1:55 am 01:55 Clear 21 -6.3 17 -8.2 87 87 WNW 10 17 30.19 1022 10 16.0934 0 0
2:15 am 02:15 Clear 22 -5.5 18 -7.6 85 85 WNW 10 17 30.17 1022 10 16.0934 0 0
2:35 am 02:35 Clear 22 -5.6 18 -7.8 85 85 WNW 10 17 30.18 1022 10 16.0934 0 0
2:55 am 02:55 Clear 22 -5.5 18 -7.8 84 84 WNW 10 17 30.18 1022 10 16.0934 0 0
3:15 am 03:15 Clear 19 -7.1 15 -9.2 85 85 WNW 12 19 30.19 1022 10 16.0934 0 0
3:35 am 03:35 Clear 20 -6.9 16 -8.9 86 86 W 10 17 30.19 1022 10 16.0934 0 0
3:55 am 03:55 Clear 18 -8 14 -9.9 86 86 WNW 7 11 30.2 1023 10 16.0934 0 0
4:15 am 04:15 Clear 17 -8.2 14 -9.9 88 88 W 10 17 30.21 1023 10 16.0934 0 0
4:35 am 04:35 Clear 17 -8.6 14 -10.1 89 89 W 7 11 30.22 1023 10 16.0934 0 0
4:55 am 04:55 Clear 16 -8.9 14 -10.1 91 91 W 9 15 30.21 1023 10 16.0934 0 0
5:15 am 05:15 Clear 14 -9.8 13 -10.8 93 93 W 9 15 30.23 1024 10 16.0934 0 0
5:35 am 05:35 Clear 16 -9 13 -10.4 90 90 W 5 7 30.21 1023 10 16.0934 0 0
5:55 am 05:55 Clear 16 -9.1 14 -9.9 94 94 W 6 9 30.22 1023 10 16.0934 0 0
6:15 am 06:15 Clear 14 -10.1 12 -11.1 92 92 WNW 5 7 30.23 1024 10 16.0934 0 0
6:35 am 06:35 Clear with Mist and Fog 13 -10.3 11 -11.4 92 92 Calm 30.23 1024 4 6.43736 0 0
6:55 am 06:55 Clear 14 -10 11 -11.4 90 90 WSW 3 6 30.23 1024 10 16.0934 0 0
7:15 am 07:15 Clear with Mist and Fog 11 -11.5 9 -13 89 89 W 6 9 30.25 1024 4 6.43736 0 0
7:35 am 07:35 Clear 11 -11.9 8 -13.6 87 87 W 6 9 30.25 1024 10 16.0934 0 0
7:55 am 07:55 Clear 12 -11.2 9 -12.7 89 89 W 7 11 30.24 1024 10 16.0934 0 0
8:15 am 08:15 Sunny 12 -11.2 9 -12.7 89 89 W 6 9 30.25 1024 10 16.0934 0 0
8:35 am 08:35 Sunny 12 -10.9 10 -12.5 88 88 W 6 9 30.25 1024 10 16.0934 0 0
8:55 am 08:55 Sunny 16 -8.8 14 -10 91 91 WSW 5 7 30.24 1024 10 16.0934 0 0
9:15 am 09:15 Sunny 17 -8.2 15 -9.4 91 91 W 6 9 30.23 1024 10 16.0934 0 0
9:35 am 09:35 Sunny 19 -7.4 17 -8.5 92 92 Calm 30.21 1023 10 16.0934 0 0
9:55 am 09:55 Sunny 20 -6.4 19 -7.5 92 92 Calm 30.2 1023 10 16.0934 0 0
10:15 am 10:15 Sunny 22 -5.7 20 -6.8 92 92 Calm 30.21 1023 10 16.0934 0 0
10:35 am 10:35 Sunny 22 -5.7 20 -6.8 92 92 Calm 30.2 1023 10 16.0934 0 0
10:55 am 10:55 Sunny 23 -5 21 -6.2 91 91 N 3 6 30.19 1022 10 16.0934 0 0
11:15 am 11:15 Sunny 25 -4.1 22 -5.7 89 89 Calm 30.18 1022 10 16.0934 0 0
11:35 am 11:35 Sunny 25 -3.9 20 -6.5 82 82 Calm 30.17 1022 10 16.0934 0 0
11:55 am 11:55 Sunny 26 -3.2 20 -6.4 79 79 Calm 30.15 1021 10 16.0934 0 0
12:15 pm 12:15 Sunny 28 -2.2 21 -6 75 75 Calm 30.13 1020 10 16.0934 0 0
12:35 pm 12:35 Sunny 29 -1.4 21 -5.9 72 72 Calm 30.11 1020 10 16.0934 0 0
12:55 pm 12:55 Sunny 30 -1.1 22 -5.3 73 73 Calm 30.1 1019 10 16.0934 0 0
1:15 pm 13:15 Sunny 30 -1 24 -4.5 77 77 E 5 7 30.09 1019 10 16.0934 0 0
1:35 pm 13:35 Sunny 32 0.1 26 -3.3 78 78 SE 6 9 30.07 1018 10 16.0934 0 0
1:55 pm 13:55 Sunny 37 2.6 27 -3 67 67 SSE 5 7 30.03 1017 10 16.0934 0 0
2:15 pm 14:15 Sunny 38 3.2 27 -2.7 66 66 SSE 5 7 30.03 1017 10 16.0934 0 0
2:35 pm 14:35 Sunny 37 3 27 -2.7 67 67 SSE 7 11 30.02 1017 10 16.0934 0 0
2:55 pm 14:55 Sunny 37 2.5 27 -2.9 68 68 S 9 15 30.01 1016 10 16.0934 0 0
3:15 pm 15:15 Sunny 37 2.5 27 -2.9 68 68 S 8 13 30 1016 10 16.0934 0 0
3:35 pm 15:35 Sunny 35 1.9 26 -3.2 69 69 S 9 15 30.01 1016 10 16.0934 0 0
3:55 pm 15:55 Sunny 35 1.6 25 -3.8 68 68 S 10 17 30 1016 10 16.0934 0 0
4:15 pm 16:15 Sunny 34 1.3 25 -3.8 69 69 SSE 9 15 30 1016 10 16.0934 0 0
4:35 pm 16:35 Sunny 34 1.1 25 -4 69 69 SE 9 15 30.01 1016 10 16.0934 0 0
4:55 pm 16:55 Sunny 35 1.5 25 -3.7 69 69 SE 9 15 29.99 1016 10 16.0934 0 0
5:15 pm 17:15 Clear 34 1 25 -4 70 70 SE 9 15 29.99 1015 10 16.0934 0 0
5:35 pm 17:35 Clear 33 0.6 25 -4 72 72 SE 8 13 29.99 1016 10 16.0934 0 0
5:55 pm 17:55 Clear 32 0 25 -4.1 74 74 SE 8 13 30 1016 10 16.0934 0 0
6:15 pm 18:15 Clear 33 0.7 26 -3.6 73 73 SSE 10 17 29.98 1015 10 16.0934 0 0
6:35 pm 18:35 Clear 34 0.9 25 -3.8 71 71 ESE 7 11 29.98 1015 10 16.0934 0 0
6:55 pm 18:55 Clear 36 2.4 26 -3.5 65 65 SE 10 17 29.95 1014 10 16.0934 0 0
7:15 pm 19:15 Clear 35 1.9 25 -3.7 67 67 ESE 8 13 29.96 1014 10 16.0934 0 0
7:35 pm 19:35 Clear 37 2.7 26 -3.2 65 65 SSE 13 20 29.94 1014 10 16.0934 0 0
7:55 pm 19:55 Clear 37 2.7 26 -3.5 64 64 SE 10 17 29.94 1014 10 16.0934 0 0
8:15 pm 20:15 Clear 37 3 26 -3.6 62 62 SE 10 17 29.93 1013 10 16.0934 0 0
8:35 pm 20:35 Clear 37 2.6 26 -3.6 64 64 SE 8 13 29.93 1014 10 16.0934 0 0
8:55 pm 20:55 Clear 36 2.4 26 -3.5 65 65 SE 7 11 29.93 1014 10 16.0934 0 0
9:15 pm 21:15 Clear 37 2.6 26 -3.1 66 66 SSE 10 17 29.92 1013 10 16.0934 0 0
9:35 pm 21:35 Clear 37 2.6 27 -3 67 67 S 10 17 29.92 1013 10 16.0934 0 0
9:55 pm 21:55 Clear 37 2.8 26 -3.1 65 65 S 15 24 29.91 1013 10 16.0934 0 0
10:15 pm 22:15 Clear 37 2.6 27 -3 67 67 S 20 31 29.9 1013 10 16.0934 0 0
10:35 pm 22:35 Clear 37 2.7 27 -2.9 67 67 S 18 30 29.9 1013 10 16.0934 0 0
10:55 pm 22:55 Clear 37 2.6 27 -2.7 68 68 S 14 22 29.9 1013 10 16.0934 0 0
11:15 pm 23:15 Clear 36 2.4 27 -2.9 68 68 SSE 13 20 29.89 1012 10 16.0934 0 0
11:35 pm 23:35 Clear 36 2.2 27 -2.7 70 70 SSE 10 17 29.88 1012 10 16.0934 0 0
11:55 pm 23:55 Clear 36 2.2 27 -2.9 69 69 SE 10 17 29.87 1012 10 16.0934 0 0

Powered by AerisWeather